Location: Lussas
(44.6119°N, 4.4726°E)
Time: 14:40:05
(UTC+00:00)

Meteor 2-3 Rocket - Pass Details

Date: 26 November 2020
Orbit: 842 x 885 km, 81.2° (Epoch: 27 January)

Event Time Altitude Azimuth Distance (km) Brightness Sun altitude
Rises 05:30:00 0° 208° (SSW) 3,431 6.7 -14.5°
Reaches altitude 10° 05:32:31 10° 214° (SW) 2,505 6.0 -14.1°
Maximum altitude 05:37:57 45° 286° (WNW) 1,181 4.0 -13.1°
Drops below altitude 10° 05:43:29 10° 359° (N) 2,547 6.0 -12.2°
Sets 05:46:05 0° 6° (N) 3,494 6.8 -11.8°
